Regional Weather Roundup
Issued by NWS Cleveland, OH

Home | Current Version | Previous Version | Graphics & Text | Print | Product List | Glossary On
Versions: 1 2 3 4 5 6 7 8 9 10 11 12 13 14 15 16 17 18 19 20 21 22 23 24 25 26 27 28 29 30 31 32 33 34 35 36 37 38 39 40 41 42 43 44 45 46 47 48 49 50
000
ASUS41 KCLE 201710
RWRCLE
OHIO REGIONAL WEATHER ROUNDUP
NATIONAL WEATHER SERVICE WILMINGTON, OH
1200 PM EST MON NOV 20 2017

NOTE: "FAIR" INDICATES FEW OR NO CLOUDS BELOW 12,000 FEET WITH NO
SIGNIFICANT WEATHER AND/OR OBSTRUCTIONS TO VISIBILITY.

OHZ001>008-015>018-024>027-034-035-043-044-201800-
   NORTHWEST OHIO

CITY           SKY/WX    TMP DP  RH WIND       PRES   REMARKS
DEFIANCE       FAIR      42  26  53 SW20G25   30.03F
FINDLAY        FAIR      41  27  57 S16       30.06F
TOLEDO EXPRESS FAIR      43  27  53 SW15G25   30.02F
TOLEDO EXEC    FAIR      42  26  53 SW17      30.05F
LIMA           NOT AVBL
$$

OHZ009>014-019>023-028>033-038-089-201800-
   NORTHEAST OHIO

CITY           SKY/WX    TMP DP  RH WIND       PRES   REMARKS
CLE-HOPKINS    FAIR      41  26  55 S15       30.09F
CLE-LAKEFRONT  FAIR      41  24  51 S20G26    30.06F
CUY CO. ARPT   MOSUNNY   41  28  60 S17G23    30.06F
LORAIN-ELYRIA  FAIR      40  23  50 SW18G26   30.07F
ASHTABULA      FAIR      37  27  67 SW15      30.06F
AKRON-CANTON   FAIR      38  24  57 SW16      30.10F
WOOSTER        FAIR      38  24  57 SW15G23   30.10F
MANSFIELD      FAIR      39  24  55 S18G26    30.09F
YOUNGSTOWN     PTSUNNY   37  25  61 SW13G23   30.08F
$$

OHZ042-051>053-060>062-070>072-077>081-201800-
  SOUTHWEST OHIO

CITY           SKY/WX    TMP DP  RH WIND       PRES   REMARKS
CINC-COVINGTON PTSUNNY   41  27  57 S9        30.19F
CINC-LUNKEN    FAIR      42  28  57 S9        30.23F
HAMILTON       FAIR      43  23  45 S12       30.20F
DAYTON         FAIR      39  26  59 S15       30.14F
WRIGHT-PAT AFB MOSUNNY   39  21  48 SW7       30.15F
DAYTON GENERAL FAIR      40  26  57 S16       30.16F
WILMINGTON     FAIR      39  27  62 SW15      30.17F
$$

OHZ036-037-039>041-045>050-054>059-063>069-073>076-082>088-201800-
  CENTRAL AND SOUTHEAST OHIO

CITY           SKY/WX    TMP DP  RH WIND       PRES   REMARKS
COLUMBUS       FAIR      39  24  55 S15       30.17F
OSU AIRPORT    FAIR      39  26  59 S13       30.15F
BOLTON FIELD   SUNNY     39  27  60 SW14G21   30.17F
RICKENBACK AFB FAIR      38  25  59 S14G20    30.18F
NEWARK         FAIR      39  23  52 SW13      30.16F
MARION         FAIR      38  26  62 S21       30.11F
LANCASTER      FAIR      39  25  57 S12       30.19F
ZANESVILLE     FAIR      39  23  52 S13       30.18F
NEW PHILLY     FAIR      39  24  55 SW8       30.16F
$$



USA.gov is the U.S. government's official web portal to all federal, state and local government web resources and services.